Location: Niedergestelen
(46.3129°N, 7.7822°E)
Time: 05:58:19
(UTC+00:00)

Cosmos 2369 Rocket - Pass Details

Date: 01 December 2020
Orbit: 829 x 852 km, 71.0° (Epoch: 18 January)

Event Time Altitude Azimuth Distance (km) Brightness Sun altitude
Rises 17:50:37 0° 329° (NNW) 3,423 5.6 -21.1°
Reaches altitude 10° 17:53:07 10° 325° (NW) 2,480 4.9 -21.6°
Maximum altitude 17:58:38 53° 250° (WSW) 1,030 2.9 -22.5°
Drops below altitude 10° 18:04:05 10° 175° (S) 2,448 4.6 -23.4°
Sets 18:06:33 0° 171° (S) 3,375 5.3 -23.9°
